Weather History for KMRH - June, 2012

Change the Weather History Date:

Sunday, June 17, 2012

  Actual Average Record
Temperature  
Mean Temperature 70 °F -  
Max Temperature 80 °F 83 °F 94 °F (1981)
Min Temperature 63 °F 69 °F 59 °F (1959)
Cooling Degree Days 6    
Growing Degree Days 20 (Base 50)    
Moisture  
Dew Point 61 °F    
Average Humidity 74    
Maximum Humidity 90    
Minimum Humidity 52    
Precipitation  
Precipitation 0.00 in - - ()
Sea Level Pressure  
Sea Level Pressure 30.10 in    
Wind  
Wind Speed 8 mph (NNE)    
Max Wind Speed 15 mph    
Max Gust Speed 26 mph    
Visibility 10 miles    
Events      
Averages and records for this station are not official NWS values.
T = Trace of Precipitation, MM = Missing Value Source: NWS Daily Summary

Daily Weather History Graph

Daily Weather History Graph

Search for Another Location

Airport or City:

Trip Planner

Search our weather history database for the weather conditions in past years. The results will help you decide how hot, cold, wet, or windy it might be!

Date:

Astronomy

Jun. 17, 2012 Rise Set
Actual Time 5:53 AM EDT 8:22 PM EDT
Civil Twilight 5:23 AM EDT 8:51 PM EDT
Nautical Twilight 4:47 AM EDT 9:28 PM EDT
Astronomical Twilight 4:06 AM EDT 10:08 PM EDT
Moon 4:18 AM EDT (6/17) 6:50 PM EDT (6/17)
Length of Visible Light 15h 28m
Length of Day
14h 29m
Waning Crescent, 4% of the Moon is Illuminated
Jun 17
Waning Crescent
Jun 19
New
Jun 26
First Quarter
Jul 3
Full
Jul 10
Last Quarter

Hourly Weather History & Observations

Time (EDT) Temp. Dew Point Humidity Pressure Visibility Wind Dir Wind Speed Gust Speed Precip Events Conditions
12:56 AM 63.0 °F 57.0 °F 81% 30.14 in 10.0 mi North 6.9 mph - N/A   Clear
1:56 AM 63.0 °F 59.0 °F 87% 30.12 in 10.0 mi NNE 5.8 mph - N/A   Clear
2:56 AM 64.9 °F 61.0 °F 87% 30.11 in 10.0 mi North 6.9 mph - N/A   Clear
3:56 AM 64.9 °F 61.0 °F 87% 30.10 in 10.0 mi North 8.1 mph - N/A   Clear
4:56 AM 64.9 °F 61.0 °F 87% 30.10 in 10.0 mi North 5.8 mph - N/A   Partly Cloudy
5:09 AM 66.2 °F 62.6 °F 88% 30.10 in 10.0 mi NNW 8.1 mph - N/A   Mostly Cloudy
5:56 AM 64.9 °F 62.1 °F 90% 30.11 in 10.0 mi North 6.9 mph - N/A   Mostly Cloudy
6:56 AM 66.0 °F 62.1 °F 87% 30.13 in 10.0 mi North 9.2 mph - N/A   Mostly Cloudy
7:11 AM 66.2 °F 62.6 °F 88% 30.13 in 10.0 mi NNW 11.5 mph - N/A   Scattered Clouds
7:20 AM 66.2 °F 62.6 °F 88% 30.13 in 10.0 mi North 9.2 mph - N/A   Mostly Cloudy
7:29 AM 66.2 °F 62.6 °F 88% 30.13 in 10.0 mi North 6.9 mph - N/A   Scattered Clouds
7:56 AM 68.0 °F 63.0 °F 84% 30.13 in 10.0 mi North 8.1 mph - N/A   Scattered Clouds
8:21 AM 68.0 °F 62.6 °F 83% 30.13 in 10.0 mi North 6.9 mph - N/A   Mostly Cloudy
8:56 AM 71.1 °F 62.1 °F 73% 30.14 in 10.0 mi NNE 12.7 mph - N/A   Mostly Cloudy
9:20 AM 71.6 °F 62.6 °F 73% 30.13 in 10.0 mi NNE 11.5 mph - N/A   Mostly Cloudy
9:56 AM 73.9 °F 62.1 °F 66% 30.13 in 10.0 mi NNE 11.5 mph - N/A   Mostly Cloudy
10:56 AM 77.0 °F 62.1 °F 60% 30.13 in 10.0 mi North 12.7 mph 18.4 mph N/A   Clear
11:56 AM 75.9 °F 61.0 °F 60% 30.12 in 10.0 mi North 15.0 mph 26.5 mph N/A   Mostly Cloudy
12:56 PM 77.0 °F 60.1 °F 56% 30.11 in 10.0 mi NE 8.1 mph 19.6 mph N/A   Scattered Clouds
1:56 PM 78.1 °F 60.1 °F 54% 30.10 in 10.0 mi NNE 6.9 mph 17.3 mph N/A   Mostly Cloudy
2:56 PM 77.0 °F 61.0 °F 58% 30.08 in 10.0 mi NE 11.5 mph - N/A   Mostly Cloudy
3:56 PM 77.0 °F 61.0 °F 58% 30.07 in 10.0 mi ENE 6.9 mph - N/A   Scattered Clouds
4:56 PM 78.1 °F 59.0 °F 52% 30.06 in 10.0 mi NE 8.1 mph - N/A   Scattered Clouds
5:56 PM 77.0 °F 61.0 °F 58% 30.05 in 10.0 mi NNE 11.5 mph - N/A   Partly Cloudy
6:56 PM 75.0 °F 60.1 °F 60% 30.04 in 10.0 mi NE 6.9 mph - N/A   Clear
7:56 PM 72.0 °F 61.0 °F 68% 30.04 in 10.0 mi ENE 8.1 mph - N/A   Clear
8:56 PM 71.1 °F 62.1 °F 73% 30.06 in 10.0 mi NE 6.9 mph - N/A   Clear
9:56 PM 70.0 °F 62.1 °F 76% 30.07 in 10.0 mi ENE 6.9 mph - N/A   Clear
10:56 PM 70.0 °F 62.1 °F 76% 30.07 in 10.0 mi NE 6.9 mph - N/A   Clear
11:56 PM 68.0 °F 62.1 °F 81% 30.08 in 10.0 mi NE 5.8 mph - N/A   Clear